Location: Brodie Road Observatory
(45.4241°N, 74.5431°W)
Time: 13:43:07
(UTC-04:00)

Daily predictions for brighter satellites

Satellite Brightness Start Highest point End
(mag) Time Altitude Azimuth Time Altitude Azimuth Time Altitude Azimuth
Meteor 1-29 3.0 21:02:47 10° NNE 21:06:08 57° E 21:09:27 10° S
Cosmos 1666 3.0 21:03:32 10° N 21:07:11 46° ENE 21:10:47 10° SSE
ERS-1 Rocket 3.4 21:02:44 10° SE 21:07:33 49° ENE 21:12:24 10° N
Meteor 2-4 Rocket 4.2 21:04:59 10° SSE 21:10:17 44° E 21:15:45 10° NNE
OE (NEXTSAT) 4.5 21:07:31 10° W 21:11:06 83° N 21:14:40 10° E
Cosmos 292 Rocket 4.3 21:06:39 10° SSW 21:11:26 65° WNW 21:16:15 10° NNE
NOSS 2-2 (D) 3.5 21:08:15 10° SSW 21:12:14 65° ESE 21:16:52 10° NE
Aureole 1 Rocket 3.2 21:09:23 10° SSE 21:12:15 27° ESE 21:14:53 10° NE
PSLV R/B 3.8 21:10:32 10° WSW 21:13:26 36° S 21:16:21 10° ESE
CENTAUR R/B 3.3 21:05:46 10° NW 21:13:37 76° SW 21:22:01 10° SSE
Cosmos 1346 3.0 21:14:16 10° S 21:16:58 53° E 21:19:41 10° NNE
Cosmos 1818 3.8 21:14:45 10° SW 21:20:11 79° NW 21:25:41 10° NNE
SAR-Lupe-4 4.3 21:18:17 10° S 21:21:49 54° W 21:25:21 10° NNW
Cosmos 1656 Rocket 4.0 21:17:33 10° NNW 21:22:57 65° WSW 21:28:23 10° SSE
YAOGAN 6 2.5 21:19:41 10° SSE 21:23:11 87° ENE 21:26:43 10° NNW
Cosmos 773 Rocket 4.4 21:18:12 10° SSW 21:23:19 66° WNW 21:28:28 10° NNE
Cosmos 2112 Rocket 4.1 21:20:36 10° S 21:25:40 55° ESE 21:30:46 10° NNE
H-2A R/B 3.2 21:21:48 10° ESE 21:25:54 27° ENE 21:30:05 10° N
MetOp-A 4.3 21:24:27 10° SSE 21:29:43 60° ENE 21:35:00 10° N
NOSS 2-2 (C) 3.6 21:26:58 10° SW 21:31:01 85° NW 21:35:47 10° NE
Lacrosse 5 rocket 4.2 21:30:16 10° NW 21:33:39 20° N 21:37:05 10° NE
Okean 1-7 Rocket 3.8 21:30:58 10° S 21:35:18 53° E 21:39:42 10° NNE
Meteor 1-19 Rocket 4.4 21:29:41 10° S 21:35:30 86° W 21:41:17 10° N
SPOT 5 3.1 21:32:23 12° SE 21:36:09 44° ENE 21:40:19 10° N
DNEPR-1 R/B 3.8 21:32:44 10° NW 21:36:57 67° WSW 21:41:07 12° SSE
GENESIS II 4.3 21:33:10 10° NW 21:37:08 72° WSW 21:40:31 13° SSE
TELKOM 3 4.3 21:35:19 10° NW 21:37:27 37° NNE 21:40:12 10° E
Cosmos 1980 Rocket 4.3 21:36:33 10° N 21:39:51 15° NE 21:43:07 10° ENE
Cosmos 1943 Rocket 4.3 21:36:33 10° NW 21:40:41 21° W 21:44:47 10° SSW
Cosmos 405 Rocket 3.3 21:37:18 10° SSW 21:41:01 59° WNW 21:44:50 10° N
Meteor 1-23 Rocket 4.3 21:36:36 10° S 21:42:05 61° E 21:47:37 10° NNE
SL-27 R/B 2.5 21:40:39 10° SSW 21:44:17 70° ESE 21:47:56 10° NNE
Terra 3.4 21:41:31 11° ESE 21:44:51 21° ENE 21:48:24 10° NNE
Cosmos 921 Rocket 4.1 21:41:00 10° N 21:45:06 33° ENE 21:48:12 15° ESE
Tiangong 2 2.0 21:45:04 10° SW 21:47:51 29° SSE 21:49:37 17° ESE
MOS 1-B Rocket 4.0 21:42:41 10° SSE 21:48:21 82° ENE 21:54:52 10° NNW
Cosmos 1680 Rocket 3.6 21:43:41 10° SSW 21:48:55 81° WNW 21:54:10 10° NNE
Cosmos 2056 Rocket 3.7 21:44:58 10° NNW 21:50:07 57° ENE 21:54:03 17° SE
Meteor 1-15 Rocket 4.2 21:46:08 10° N 21:51:46 75° ENE 21:56:41 13° SSE
Cosmos 1441 Rocket 3.2 21:48:41 10° SSW 21:52:26 83° W 21:56:12 10° N
ASTEX 1 3.7 21:50:36 10° S 21:55:28 66° W 22:00:22 10° N
Cosmos 1606 Rocket 3.7 21:51:27 10° N 21:55:43 59° ENE 21:58:51 18° SSE
Cosmos 839 Rocket 4.4 21:51:49 10° NNW 21:58:13 67° NE 22:04:17 17° SE
Aureole 3 Rocket 4.2 21:52:00 10° SSW 21:58:15 58° W 22:02:44 10° N
NOAA 11 4.3 21:53:04 10° S 21:58:28 77° WSW 22:03:56 10° NNW
ARGOS 3.2 21:54:42 14° SSE 21:59:26 81° ENE 22:04:54 10° NNW
Cosmos 2181 Rocket 4.4 21:55:25 13° SSE 22:00:53 48° E 22:06:54 10° NNE
USA 245 2.1 21:59:54 26° SSE 22:01:12 72° ENE 22:03:34 10° N
Cosmos 405 3.5 21:58:54 10° NNW 22:02:26 56° W 22:05:24 13° S
Cosmos 1238 Rocket 4.2 21:56:17 10° S 22:03:02 81° W 22:09:34 10° N
Cosmos 1726 Rocket 3.6 22:01:59 10° N 22:06:18 64° E 22:09:06 21° SSE
COSMOS 2406 3.9 22:01:05 10° SW 22:06:44 58° WNW 22:12:23 10° NNE
ISS -3.8 22:04:34 10° SW 22:07:48 57° SE 22:11:04 10° ENE
YAOGAN 11 4.2 22:04:42 15° S 22:08:11 74° WSW 22:12:32 10° NNW
CZ-3A R/B 2.4 22:07:17 10° SSW 22:08:36 16° SSW 22:08:36 16° SSW
Cosmos 2278 3.9 22:06:05 10° NNW 22:11:46 62° ENE 22:15:35 21° SE
OAO 2 Rocket 4.4 22:10:05 10° SW 22:14:04 24° S 22:15:28 22° SSE
Cosmos 2058 Rocket 3.2 22:11:05 10° N 22:15:27 59° E 22:17:58 24° SSE
Cosmos 2082 Rocket 3.1 22:12:52 20° SE 22:15:33 30° ESE 22:20:23 10° NE
COSMOS 2487 3.4 22:15:01 27° SE 22:15:45 29° ESE 22:18:54 10° NE
Cosmos 1025 Rocket 3.4 22:12:01 10° SSW 22:16:15 63° W 22:20:30 10° N
SPOT 1/Viking Rocket 3.5 22:13:12 19° SSE 22:16:56 83° ENE 22:22:07 10° NNW
CARTOSAT-1 4.3 22:16:25 23° ESE 22:18:36 38° ENE 22:22:37 10° N
Cosmos 1452 Rocket 4.0 22:17:09 10° N 22:22:15 47° ENE 22:25:15 23° SE
SL-24 DEB 4.2 22:20:42 19° S 22:23:58 87° W 22:28:38 10° N
Cosmos 2369 3.7 22:25:01 10° NNW 22:30:48 85° ENE 22:34:11 26° SSE
PSLV R/B 4.3 22:30:59 25° ENE 22:31:11 25° ENE 22:33:34 10° NNE
Nimbus 7 Rocket 4.4 22:26:03 10° NNE 22:32:10 87° ESE 22:38:13 10° SSW
Cosmos 1697 Rocket 3.1 22:32:04 10° NNW 22:37:34 51° ENE 22:40:39 25° ESE
Cosmos 1437 Rocket 3.9 22:35:22 10° NNW 22:38:55 37° W 22:41:21 18° SSW
SL-16 R/B 4.4 22:35:39 10° N 22:39:08 16° NE 22:42:37 10° E
NOSS 8 (F) 4.5 22:39:45 33° S 22:41:05 58° SE 22:44:41 10° NE
Cosmos 1812 Rocket 4.5 22:38:00 10° N 22:42:09 35° ENE 22:43:38 28° ESE
H-2A R/B 2.2 22:41:37 32° SSE 22:43:37 69° ENE 22:48:09 10° N
SL-8 Rocket 4.0 22:38:01 10° N 22:44:19 86° E 22:48:10 25° S
Meteor 2-21 4.5 22:39:43 10° N 22:45:46 67° E 22:48:58 29° SSE
USA 267 4.0 22:41:45 10° ENE 22:47:18 29° SE 22:48:42 27° SSE
Cosmos 2366 rocket 4.0 22:42:44 10° N 22:48:56 70° E 22:52:12 29° SSE
Cosmos 1953 4.3 22:47:34 10° NNE 22:50:17 17° ENE 22:51:14 16° E
Cosmos 1271 Rocket 3.9 22:49:20 10° N 22:52:46 30° ENE 22:53:33 27° E
Cosmos 1656 3.6 22:48:19 10° NNW 22:53:47 89° WSW 22:56:22 33° SSE
Cosmos 1626 Rocket 3.6 22:53:40 40° SSE 22:54:56 57° E 22:59:11 10° NNE
Cosmos 1833 Rocket 2.7 22:54:08 27° S 22:57:04 59° ESE 23:02:36 10° NNE
NOSS 8 (H) 4.4 22:58:59 58° SE 22:59:04 59° SE 23:02:39 10° NE
Meteor 1-4 Rocket 2.5 23:00:44 10° NNW 23:04:22 76° W 23:05:01 55° SSW
Cosmos 1066 Rocket 4.1 23:01:32 25° SSW 23:04:50 86° W 23:10:30 10° N
H-2A R/B 2.9 23:02:15 21° SSW 23:05:08 41° W 23:09:53 10° NNW
IGS 5A 3.5 23:03:53 41° S 23:05:15 73° WSW 23:09:26 10° NNW
SeaSat 1 4.0 23:03:35 16° E 23:06:26 27° NE 23:10:33 10° N
Landsat 7 4.4 23:04:53 27° SSW 23:07:12 49° W 23:11:50 10° NNW
Meteor 1-21 4.4 23:12:09 37° SSE 23:14:14 58° E 23:19:51 10° NNE
Lacrosse 5 rocket 3.8 23:10:30 10° NW 23:14:16 24° NNE 23:18:02 10° ENE
Timation 2 Rocket 4.1 23:11:40 33° S 23:14:18 53° ESE 23:20:17 10° NE
USA 229 DEB 4.0 23:07:14 10° NW 23:14:20 65° NE 23:18:38 26° ESE
USA 229 4.0 23:07:20 10° NW 23:14:26 65° NE 23:18:45 26° ESE
Cosmos 1766 3.1 23:12:07 10° N 23:16:02 79° E 23:16:38 61° SSE
DMSP B5D2-2 4.5 23:11:24 10° N 23:16:39 63° WNW 23:20:16 20° SSW
Cosmos 2228 4.3 23:14:15 10° NNW 23:18:09 34° W 23:20:01 23° SW
ATLAS CENTAUR R/B 3.6 23:18:32 10° N 23:20:50 16° NE 23:22:58 11° ENE
Terra 2.4 23:20:24 32° SSW 23:22:15 50° W 23:26:54 10° NNW
SL-19 R/B 4.2 23:18:03 10° NNE 23:23:28 77° WNW 23:26:18 28° SSW
USA 234 4.3 23:17:32 10° E 23:23:39 43° NNE 23:29:44 10° NW
Tiangong 2 3.5 23:21:13 10° WSW 23:21:52 15° WSW 23:21:52 15° WSW
Cosmos 1980 Rocket 2.2 23:19:15 10° NNW 23:24:56 72° ENE 23:27:03 39° SE
Cosmos 2218 Rocket 4.4 23:20:30 10° NNW 23:26:29 55° W 23:29:46 27° SSW
SME Rocket 4.0 23:25:58 34° ESE 23:27:43 48° ENE 23:31:47 10° N
DELTA 2 DEB (DPAF) 4.1 23:27:45 53° SSE 23:28:49 88° WSW 23:33:20 10° NNW
Cosmos 1602 Rocket 3.8 23:27:27 39° SW 23:28:54 65° W 23:33:13 10° N
deb Chang Zheng 4 3.9 23:25:32 10° N 23:29:47 60° WNW 23:31:31 33° SW
Cosmos 1758 3.7 23:26:28 10° N 23:30:22 47° ENE 23:30:40 46° E
Cosmos 1470 4.2 23:29:36 10° NNE 23:32:59 25° ENE 23:33:19 25° E
Spot 4 3.9 23:32:13 46° S 23:33:34 72° WSW 23:38:24 10° NNW
Cosmos 2322 Rocket 3.4 23:28:43 10° NNW 23:33:54 34° NE 23:36:50 22° ESE
Cosmos 158 Rocket 4.0 23:33:04 46° SSE 23:34:29 65° ESE 23:39:50 10° NNE
CZ-2C R/B 4.2 23:32:31 27° ESE 23:34:37 36° ENE 23:39:44 10° N
CZ-4B R/B 3.5 23:31:18 10° NNE 23:36:22 84° WNW 23:38:21 39° SSW
Cosmos 1269 Rocket 3.9 23:39:42 46° S 23:41:17 77° ESE 23:46:36 10° NNE
Meteor 2-8 Rocket 4.5 23:39:32 41° SSE 23:41:38 65° E 23:47:45 10° NNE
Cosmos 389 Rocket 3.0 23:40:23 10° N 23:43:28 48° NE 23:43:28 48° NE
ISS -2.1 23:41:22 10° W 23:44:27 35° NNW 23:47:31 10° NE
Cosmos-2242 4.2 23:41:06 10° N 23:44:57 30° ENE 23:45:29 29° E
Cosmos 1544 3.1 23:44:23 10° NNW 23:47:55 70° W 23:47:55 70° W
Cosmos 1805 3.1 23:47:05 10° NNW 23:50:59 76° W 23:51:06 75° WSW
Cosmos 1707 4.4 23:51:42 23° ENE 23:51:42 23° ENE 23:54:17 10° NE
TRAILBLAZER 4.5 23:50:15 10° NW 23:54:52 74° WSW 23:55:22 66° S
